SL-19 DEB, 23496

Orbit data source: Space-Track

SL-19 DEB, 23496 is space debris in LEO originally from a launch on Mon, 26 Dec 1994 UTC launched from the Tyuratam Missile And Space Complex (TTMTR). Debris objects in space refer to the collection of defunct objects orbiting the Earth. Examples of debris include non-operational satellites, rocket bodies, and fragments generated from explosions, collisions, or faulty payload assembly.

Loading next visibility...
Identifier
23496, 1994-085U
Orbit
LEO
Country
Flag of CISCIS
Related business
Manufacturer
Unknown
Mission
Spacecraft
Bus & Motor
Unknown
Mass
Unknown
Launch date (UTC)
1994-12-26 (31 years ago)
Launch vehicle
Unknown
Launch site
Tyuratam Missile And Space Complex (TTMTR)
Object type
Payload
Rocket body
Debris
Shape & HBR
Unknown shape, 0.1 m
Radar Cross Section
Medium (>0.1 m² and <1 m²)

Expand to show TLE details & history
Last TLE update: 18 hours ago

TLE from 18 hours ago
0 SL-19 DEB
1 23496U 94085U   26048.37659666  .00000911  00000-0  24766-1 0  9995
2 23496  64.8273  40.9426 0213499 335.2572 173.6925 11.33231477285691
Epoch: 2026-02-17T09:02Z
TLE epoch observation values (Epoch: 2026-02-17T09:02:17.951Z)
Latitude
27.64617°
Longitude
-76.17562°
Altitude
2,174.347 km
Speed
6.758 km/s
True Right ascension
13h 47m 01s
True Declination
27° 31' 42"
Sunlit
Object was in daylight at epoch
Visualization orbit readout
Latitude
Unknown
Longitude
Unknown
Altitude
Unknown
Speed
Unknown
Apparent Right ascension
Unknown
Apparent Declination
Unknown
Sunlit
N/A
Visualization observer readout
Local Sidereal Time
06:14:46
Azimuth
Unknown
Elevation
Unknown
Doppler factor
Unknown
Orbital elements
Apogee altitude
2,171.91 km
Perigee altitude
1,814.456 km
Semi-major axis
8,371.32 km
Eccentricity
0.02135
Inclination
64.8273°
RAAN
40.9426°
Arg. of periapsis
335.2572°
True anomaly
173.95433°
Mean anomaly
173.6925°
Eccentric anomaly
173.8241°
Mean motion
2.83369 °/min
Orbital period
127.04 mins
BSTAR
0.024766
Loading maneuver chart data...
Computing Atmospheric mass density...
Loading historical data...
Loading historical data...
Loading historical data...
Loading historical data...
Loading historical data...
Loading historical data...
Loading historical data...

Documentation

Showing up to 5 results
|